Skip Page Navigation
NASA JPL Caltech
NASA Logo - Jet Propulsion Laboratory + View the NASA Portal
+ Center for Near-Earth Object Studies
JPL Home Earth Solar System Stars & Galaxies Technology
JPL Solar System Dynamics
BODIES ORBITS EPHEMERIDES TOOLS PHYSICAL DATA DISCOVERY FAQ SITE MAP
JPL Small-Body Database Browser
Search: [ help ]  
193555 (2000 YL136)
Classification: Main-belt Asteroid          SPK-ID: 2193555
Ephemeris | Orbit Diagram | Orbital Elements | Mission Design | Physical Parameters | Discovery Circumstances | Close-Approach Data ]

[ show orbit diagram ]
Orbital Elements at Epoch 2459000.5 (2020-May-31.0) TDB
Reference: JPL 15 (heliocentric ecliptic J2000)
 Element Value Uncertainty (1-sigma)   Units 
e .2147106365579926 5.2612e-08  
a 2.612335152602203 2.284e-08 au
q 2.051439009084163 1.31e-07 au
i 16.45146758739155 5.7502e-06 deg
node 193.3492691874625 1.9283e-05 deg
peri 252.0939932207259 2.532e-05 deg
M 214.0502509740127 2.3644e-05 deg
tp 2459625.734048368363
(2022-Feb-15.23404837)
0.00010772 TDB
period 1542.203799011211
4.22
2.0226e-05
5.538e-08
d
yr
n .2334321833669552 3.0615e-09 deg/d
Q 3.173231296120243 2.7745e-08 au
  Orbit Determination Parameters
   # obs. used (total)      223  
   data-arc span      6764 days (18.52 yr)  
   first obs. used      2000-11-25  
   last obs. used      2019-06-03  
   planetary ephem.      DE431  
   SB-pert. ephem.      SB431-N16  
   condition code      0  
   norm. resid. RMS      .65588  
   source      ORB  
   producer      Otto Matic  
   solution date      2020-Feb-24 22:05:23  

Additional Information
 Earth MOID = 1.13052 au 
 Jupiter MOID = 2.36246 au 
 T_jup = 3.319 
[ hide covariance matrix ]
Orbital Elements at Epoch 2457104.5 (2015-Mar-23.0) TDB
Reference: JPL 15 (heliocentric ecliptic J2000)
 Element Value Uncertainty (1-sigma)   Units 
e .2167272458360197 5.2696e-08  
q 2.042991454541564 1.316e-07 au
tp 2456544.068147933728
(2013-Sep-08.56814793)
7.8378e-05 TDB
node 193.5422050368263 1.926e-05 deg
peri 251.6104841147532 2.5206e-05 deg
i 16.4754885803792 5.756e-06 deg
  Orbit Determination Parameters
   # obs. used (total)      223  
   data-arc span      6764 days (18.52 yr)  
   first obs. used      2000-11-25  
   last obs. used      2019-06-03  
   planetary ephem.      DE431  
   SB-pert. ephem.      SB431-N16  
   condition code      0  
   norm. resid. RMS      .65588  
   source      ORB  
   producer      Otto Matic  
   solution date      2020-Feb-24 22:05:23  

Additional Information
 Jupiter MOID = 2.36246 au 
 T_jup = 3.319 
Orbit Covariance (6×6)
  e q tp node peri i
e 2.77684573124881E-15 -6.882439953746897E-15 1.176913535553976E-12 -6.370923902846145E-15 2.330416602653581E-13 1.026615434733871E-15
q -6.882439953746897E-15 1.731917569346993E-14 -2.255623661308204E-12 2.096543769328077E-14 -4.337923704850334E-13 -1.72667354185525E-15
tp 1.176913535553976E-12 -2.255623661308204E-12 6.143129185761653E-9 1.762771446731036E-11 1.309169654865258E-9 -4.971029988401451E-12
node -6.370923902846145E-15 2.096543769328077E-14 1.762771446731036E-11 3.709540251722955E-10 -3.513456184614071E-10 4.883384498523695E-12
peri 2.330416602653581E-13 -4.337923704850334E-13 1.309169654865258E-9 -3.513456184614071E-10 6.353329241239383E-10 -5.631596820022086E-12
i 1.026615434733871E-15 -1.72667354185525E-15 -4.971029988401451E-12 4.883384498523695E-12 -5.631596820022086E-12 3.313162152742689E-11

Ephemeris | Orbit Diagram | Orbital Elements | Mission Design | Physical Parameters | Discovery Circumstances | Close-Approach Data ]

Physical Parameter Table
Parameter Symbol Value Units Sigma Reference Notes
absolute magnitude H 16.3   n/a MPO433280  

193555 (2000 YL136)          Discovered 2000-Dec-23 by LINEAR at Socorro
Reference: 20081113/Numbers.arcLast Updated: 2008-11-17

[ show close-approach data ]
Ephemeris | Orbit Diagram | Orbital Elements | Mission Design | Physical Parameters | Discovery Circumstances | Close-Approach Data ]
ABOUT SSD CREDITS/AWARDS PRIVACY/COPYRIGHT GLOSSARY LINKS
FirstGov 2020-Jul-12 00:38 UT
(server date/time)  
NASA Home Page
Site Manager:   Ryan S. Park
Webmaster  Alan B. Chamberlin